Saint Bonnet de Bellac- Haute Vienne - France
Donnes mto: samedi, 19/05/2012
Date Horaire Temp. E. Hum. E. P.atmo. Pluie Vent Direction Direction Ensoleilleme Solaire P. de rose Temp au vent Rafales
19/05/2012 00:00 12,1 C 88 % 1010,9 hPa 0,0 mm 0,0 km/h (0 Bft) S 180 0 min 0 W/m 10,2 C 12,1 C 0,0 km/h (0 Bft)
19/05/2012 00:10 12,1 C 88 % 1010,9 hPa 0,0 mm 0,0 km/h (0 Bft) S 180 0 min 0 W/m 10,2 C 12,1 C 0,0 km/h (0 Bft)
19/05/2012 00:20 12,1 C 88 % 1010,8 hPa 0,0 mm 0,0 km/h (0 Bft) S 180 0 min 0 W/m 10,2 C 12,1 C 0,0 km/h (0 Bft)
19/05/2012 00:30 12,1 C 88 % 1010,7 hPa 0,0 mm 0,0 km/h (0 Bft) S 180 0 min 0 W/m 10,2 C 12,1 C 0,0 km/h (0 Bft)
19/05/2012 00:40 12,1 C 88 % 1010,7 hPa 0,0 mm 0,0 km/h (0 Bft) S 180 0 min 0 W/m 10,2 C 12,1 C 0,0 km/h (0 Bft)
19/05/2012 00:50 12,0 C 88 % 1010,7 hPa 0,0 mm 0,0 km/h (0 Bft) SE 135 0 min 0 W/m 10,1 C 12,0 C 0,0 km/h (0 Bft)
19/05/2012 01:00 12,0 C 88 % 1010,6 hPa 0,0 mm 0,0 km/h (0 Bft) SE 135 0 min 0 W/m 10,1 C 12,0 C 0,0 km/h (0 Bft)
19/05/2012 01:10 12,0 C 88 % 1010,4 hPa 0,0 mm 0,0 km/h (0 Bft) E-SE 112 0 min 0 W/m 10,1 C 12,0 C 0,0 km/h (0 Bft)
19/05/2012 01:20 12,0 C 88 % 1010,4 hPa 0,0 mm 1,1 km/h (1 Bft) SE 135 0 min 0 W/m 10,1 C 12,0 C 3,6 km/h (1 Bft)
19/05/2012 01:30 12,0 C 88 % 1010,4 hPa 0,0 mm 0,7 km/h (0 Bft) SE 135 0 min 0 W/m 10,1 C 12,0 C 6,1 km/h (2 Bft)
19/05/2012 01:40 12,0 C 89 % 1010,3 hPa 0,0 mm 2,5 km/h (1 Bft) E 90 0 min 0 W/m 10,2 C 12,0 C 4,3 km/h (1 Bft)
19/05/2012 01:50 12,0 C 89 % 1010,1 hPa 0,0 mm 0,0 km/h (0 Bft) E 90 0 min 0 W/m 10,2 C 12,0 C 0,0 km/h (0 Bft)
19/05/2012 02:00 11,9 C 89 % 1010,2 hPa 0,0 mm 0,0 km/h (0 Bft) E-SE 112 0 min 0 W/m 10,1 C 11,9 C 0,0 km/h (0 Bft)
19/05/2012 02:10 11,8 C 89 % 1010,2 hPa 0,0 mm 0,0 km/h (0 Bft) E-SE 112 0 min 0 W/m 10,0 C 11,8 C 0,0 km/h (0 Bft)
19/05/2012 02:20 11,7 C 89 % 1010,1 hPa 0,0 mm 2,5 km/h (1 Bft) E-SE 112 0 min 0 W/m 9,9 C 11,7 C 4,3 km/h (1 Bft)
19/05/2012 02:30 11,6 C 89 % 1010,0 hPa 0,0 mm 3,2 km/h (1 Bft) E 90 0 min 0 W/m 9,8 C 11,6 C 9,0 km/h (2 Bft)
19/05/2012 02:40 11,6 C 89 % 1009,9 hPa 0,0 mm 0,4 km/h (0 Bft) E 90 0 min 0 W/m 9,8 C 11,6 C 3,6 km/h (1 Bft)
19/05/2012 02:50 11,6 C 90 % 1009,8 hPa 0,0 mm 0,7 km/h (0 Bft) SE 135 0 min 0 W/m 10,0 C 11,6 C 6,5 km/h (2 Bft)
19/05/2012 03:02 11,6 C 90 % 1009,7 hPa 0,0 mm 4,0 km/h (1 Bft) E-SE 112 0 min 0 W/m 10,0 C 11,6 C 4,0 km/h (1 Bft)
19/05/2012 03:10 11,5 C 90 % 1009,4 hPa 0,0 mm 6,8 km/h (2 Bft) E-SE 112 0 min 0 W/m 9,9 C 11,5 C 10,1 km/h (2 Bft)
19/05/2012 03:20 11,5 C 90 % 1009,4 hPa 0,0 mm 1,1 km/h (1 Bft) E 90 0 min 0 W/m 9,9 C 11,5 C 3,6 km/h (1 Bft)
19/05/2012 03:30 11,5 C 90 % 1009,1 hPa 0,0 mm 1,8 km/h (1 Bft) E-NE 67 0 min 0 W/m 9,9 C 11,5 C 4,0 km/h (1 Bft)
19/05/2012 03:40 11,5 C 90 % 1009,1 hPa 0,0 mm 1,4 km/h (1 Bft) E-SE 112 0 min 0 W/m 9,9 C 11,5 C 4,0 km/h (1 Bft)
19/05/2012 03:50 11,4 C 90 % 1009,3 hPa 0,0 mm 0,0 km/h (0 Bft) E-NE 67 0 min 0 W/m 9,8 C 11,4 C 0,0 km/h (0 Bft)
19/05/2012 04:00 11,4 C 90 % 1009,5 hPa 0,0 mm 0,0 km/h (0 Bft) E-NE 67 0 min 0 W/m 9,8 C 11,4 C 0,0 km/h (0 Bft)
19/05/2012 04:10 11,3 C 90 % 1009,4 hPa 0,0 mm 0,0 km/h (0 Bft) E-NE 67 0 min 0 W/m 9,7 C 11,3 C 0,0 km/h (0 Bft)
19/05/2012 04:20 11,3 C 90 % 1009,2 hPa 0,0 mm 0,0 km/h (0 Bft) E-NE 67 0 min 0 W/m 9,7 C 11,3 C 0,0 km/h (0 Bft)
19/05/2012 04:30 11,3 C 90 % 1008,9 hPa 0,0 mm 0,7 km/h (0 Bft) E-NE 67 0 min 0 W/m 9,7 C 11,3 C 0,7 km/h (0 Bft)
19/05/2012 04:40 11,4 C 90 % 1008,8 hPa 0,0 mm 0,4 km/h (0 Bft) E-NE 67 0 min 0 W/m 9,8 C 11,4 C 3,2 km/h (1 Bft)
19/05/2012 04:50 11,4 C 90 % 1008,8 hPa 0,0 mm 0,0 km/h (0 Bft) E-NE 67 0 min 0 W/m 9,8 C 11,4 C 0,0 km/h (0 Bft)
19/05/2012 05:00 11,4 C 90 % 1008,8 hPa 0,0 mm 0,0 km/h (0 Bft) E-NE 67 0 min 0 W/m 9,8 C 11,4 C 0,0 km/h (0 Bft)
19/05/2012 05:10 11,4 C 90 % 1008,4 hPa 0,0 mm 0,7 km/h (0 Bft) E-NE 67 0 min 0 W/m 9,8 C 11,4 C 3,2 km/h (1 Bft)
19/05/2012 05:20 11,4 C 90 % 1008,2 hPa 0,0 mm 0,7 km/h (0 Bft) E-NE 67 0 min 0 W/m 9,8 C 11,4 C 3,6 km/h (1 Bft)
19/05/2012 05:30 11,2 C 90 % 1008,2 hPa 0,0 mm 0,0 km/h (0 Bft) E-NE 67 0 min 0 W/m 9,6 C 11,2 C 0,0 km/h (0 Bft)
19/05/2012 05:40 11,1 C 90 % 1008,1 hPa 0,0 mm 0,0 km/h (0 Bft) E-NE 67 0 min 0 W/m 9,5 C 11,1 C 0,0 km/h (0 Bft)
19/05/2012 05:50 10,9 C 90 % 1007,9 hPa 0,0 mm 0,0 km/h (0 Bft) NE 45 0 min 0 W/m 9,3 C 10,9 C 0,0 km/h (0 Bft)
19/05/2012 06:00 10,8 C 90 % 1008,2 hPa 0,0 mm 0,0 km/h (0 Bft) E-NE 67 0 min 0 W/m 9,2 C 10,8 C 0,0 km/h (0 Bft)
19/05/2012 06:10 10,6 C 90 % 1007,9 hPa 0,0 mm 0,7 km/h (0 Bft) E-NE 67 0 min 0 W/m 9,0 C 10,6 C 4,3 km/h (1 Bft)
19/05/2012 06:20 10,5 C 90 % 1008,0 hPa 0,0 mm 0,0 km/h (0 Bft) E-NE 67 0 min 0 W/m 8,9 C 10,5 C 0,0 km/h (0 Bft)
19/05/2012 06:30 10,3 C 90 % 1007,9 hPa 0,0 mm 2,5 km/h (1 Bft) E-NE 67 0 min 0 W/m 8,7 C 10,3 C 4,3 km/h (1 Bft)
19/05/2012 06:40 10,3 C 90 % 1007,8 hPa 0,0 mm 0,0 km/h (0 Bft) E-SE 112 0 min 0 W/m 8,7 C 10,3 C 0,0 km/h (0 Bft)
19/05/2012 06:50 10,3 C 90 % 1007,7 hPa 0,0 mm 0,0 km/h (0 Bft) E-SE 112 0 min 0 W/m 8,7 C 10,3 C 0,0 km/h (0 Bft)
19/05/2012 07:00 10,3 C 90 % 1007,8 hPa 0,0 mm 0,0 km/h (0 Bft) E-SE 112 0 min 0 W/m 8,7 C 10,3 C 0,0 km/h (0 Bft)
19/05/2012 07:10 10,2 C 90 % 1007,6 hPa 0,0 mm 0,0 km/h (0 Bft) E-SE 112 0 min 0 W/m 8,6 C 10,2 C 0,0 km/h (0 Bft)
19/05/2012 07:20 10,2 C 90 % 1007,4 hPa 0,0 mm 0,0 km/h (0 Bft) E-SE 112 0 min 0 W/m 8,6 C 10,2 C 0,0 km/h (0 Bft)
19/05/2012 07:30 10,3 C 91 % 1007,2 hPa 0,0 mm 0,0 km/h (0 Bft) E 90 0 min 0 W/m 8,9 C 10,3 C 0,0 km/h (0 Bft)
19/05/2012 07:40 10,5 C 91 % 1007,0 hPa 0,0 mm 0,0 km/h (0 Bft) E 90 0 min 0 W/m 9,1 C 10,5 C 0,0 km/h (0 Bft)
19/05/2012 07:50 10,8 C 91 % 1006,9 hPa 0,0 mm 0,0 km/h (0 Bft) E 90 0 min 0 W/m 9,4 C 10,8 C 3,6 km/h (1 Bft)
19/05/2012 08:00 10,9 C 91 % 1006,8 hPa 0,0 mm 1,1 km/h (1 Bft) E-NE 67 0 min 0 W/m 9,5 C 10,9 C 4,3 km/h (1 Bft)
19/05/2012 08:10 11,1 C 91 % 1006,6 hPa 0,0 mm 0,0 km/h (0 Bft) E-NE 67 0 min 0 W/m 9,7 C 11,1 C 3,2 km/h (1 Bft)
19/05/2012 08:20 11,3 C 91 % 1006,5 hPa 0,0 mm 0,7 km/h (0 Bft) NE 45 0 min 0 W/m 9,9 C 11,3 C 3,6 km/h (1 Bft)
19/05/2012 08:30 11,3 C 91 % 1006,5 hPa 0,0 mm 0,0 km/h (0 Bft) NE 45 0 min 0 W/m 9,9 C 11,3 C 0,0 km/h (0 Bft)
19/05/2012 08:40 11,3 C 91 % 1006,5 hPa 0,0 mm 0,0 km/h (0 Bft) NE 45 0 min 0 W/m 9,9 C 11,3 C 0,0 km/h (0 Bft)
19/05/2012 08:50 11,4 C 91 % 1006,4 hPa 0,0 mm 0,0 km/h (0 Bft) NE 45 0 min 0 W/m 10,0 C 11,4 C 0,0 km/h (0 Bft)
19/05/2012 09:00 11,5 C 91 % 1006,7 hPa 0,0 mm 0,0 km/h (0 Bft) NE 45 0 min 0 W/m 10,1 C 11,5 C 0,0 km/h (0 Bft)
19/05/2012 09:10 11,7 C 91 % 1006,9 hPa 0,0 mm 2,9 km/h (1 Bft) S-SE 157 0 min 0 W/m 10,3 C 11,7 C 4,3 km/h (1 Bft)
19/05/2012 09:20 11,9 C 90 % 1007,1 hPa 0,0 mm 0,0 km/h (0 Bft) S-SO 202 0 min 0 W/m 10,3 C 11,9 C 0,0 km/h (0 Bft)
19/05/2012 09:30 12,1 C 90 % 1007,1 hPa 0,0 mm 0,0 km/h (0 Bft) S-SO 202 0 min 0 W/m 10,5 C 12,1 C 0,0 km/h (0 Bft)
19/05/2012 09:40 12,6 C 89 % 1007,3 hPa 0,0 mm 2,9 km/h (1 Bft) S 180 0 min 0 W/m 10,8 C 12,6 C 6,8 km/h (2 Bft)
19/05/2012 09:50 13,6 C 87 % 1007,4 hPa 0,0 mm 9,0 km/h (2 Bft) S-SE 157 0 min 0 W/m 11,5 C 13,6 C 11,5 km/h (2 Bft)
19/05/2012 10:00 14,5 C 78 % 1007,4 hPa 0,0 mm 9,7 km/h (2 Bft) S-SO 202 0 min 0 W/m 10,7 C 14,5 C 13,0 km/h (3 Bft)
19/05/2012 10:10 15,1 C 74 % 1007,2 hPa 0,0 mm 5,4 km/h (2 Bft) S-SE 157 0 min 0 W/m 10,5 C 15,1 C 7,2 km/h (2 Bft)
19/05/2012 10:20 15,3 C 70 % 1007,4 hPa 0,0 mm 5,8 km/h (2 Bft) S 180 0 min 0 W/m 9,9 C 15,3 C 6,1 km/h (2 Bft)
19/05/2012 10:30 15,4 C 73 % 1007,3 hPa 0,0 mm 0,0 km/h (0 Bft) S 180 0 min 0 W/m 10,6 C 15,4 C 0,0 km/h (0 Bft)
19/05/2012 10:40 15,4 C 73 % 1007,0 hPa 0,0 mm 0,0 km/h (0 Bft) E 90 0 min 0 W/m 10,6 C 15,4 C 0,0 km/h (0 Bft)
19/05/2012 10:50 15,4 C 72 % 1007,0 hPa 0,0 mm 3,6 km/h (1 Bft) S-SO 202 0 min 0 W/m 10,4 C 15,4 C 4,3 km/h (1 Bft)
19/05/2012 11:00 15,4 C 72 % 1007,0 hPa 0,0 mm 4,3 km/h (1 Bft) S-SE 157 0 min 0 W/m 10,4 C 15,4 C 7,6 km/h (2 Bft)
19/05/2012 11:10 15,6 C 72 % 1006,8 hPa 0,0 mm 5,8 km/h (2 Bft) S-SE 157 0 min 0 W/m 10,6 C 15,6 C 6,5 km/h (2 Bft)
19/05/2012 11:20 16,0 C 70 % 1006,8 hPa 0,0 mm 3,2 km/h (1 Bft) E-SE 112 0 min 0 W/m 10,5 C 16,0 C 4,0 km/h (1 Bft)
19/05/2012 11:30 16,7 C 69 % 1006,8 hPa 0,0 mm 2,2 km/h (1 Bft) E 90 0 min 0 W/m 11,0 C 16,7 C 2,2 km/h (1 Bft)
19/05/2012 11:40 17,5 C 64 % 1006,7 hPa 0,0 mm 6,5 km/h (2 Bft) S 180 0 min 0 W/m 10,6 C 17,5 C 8,6 km/h (2 Bft)
19/05/2012 11:50 18,2 C 65 % 1006,6 hPa 0,0 mm 4,0 km/h (1 Bft) S-SE 157 0 min 0 W/m 11,5 C 18,2 C 7,2 km/h (2 Bft)
19/05/2012 12:00 18,4 C 62 % 1006,5 hPa 0,0 mm 5,4 km/h (2 Bft) S-SO 202 0 min 0 W/m 11,0 C 18,4 C 11,9 km/h (2 Bft)
19/05/2012 12:10 18,4 C 60 % 1006,6 hPa 0,0 mm 7,2 km/h (2 Bft) S-SO 202 0 min 0 W/m 10,5 C 18,4 C 11,5 km/h (2 Bft)
19/05/2012 12:20 18,2 C 60 % 1006,6 hPa 0,0 mm 5,8 km/h (2 Bft) S-SO 202 0 min 0 W/m 10,3 C 18,2 C 7,9 km/h (2 Bft)
19/05/2012 12:30 18,0 C 62 % 1006,5 hPa 0,0 mm 0,0 km/h (0 Bft) S 180 0 min 0 W/m 10,6 C 18,0 C 0,0 km/h (0 Bft)
19/05/2012 12:40 18,4 C 60 % 1006,3 hPa 0,0 mm 0,4 km/h (0 Bft) S 180 0 min 0 W/m 10,5 C 18,4 C 3,2 km/h (1 Bft)
19/05/2012 12:50 19,0 C 60 % 1006,3 hPa 0,0 mm 2,2 km/h (1 Bft) E-NE 67 0 min 0 W/m 11,1 C 19,0 C 7,6 km/h (2 Bft)
19/05/2012 13:00 19,6 C 56 % 1006,2 hPa 0,0 mm 3,6 km/h (1 Bft) S-SE 157 0 min 0 W/m 10,6 C 19,6 C 4,3 km/h (1 Bft)
19/05/2012 13:10 20,1 C 56 % 1006,1 hPa 0,0 mm 1,4 km/h (1 Bft) S-SO 202 0 min 0 W/m 11,0 C 20,1 C 4,3 km/h (1 Bft)
19/05/2012 13:20 20,6 C 52 % 1006,2 hPa 0,0 mm 4,7 km/h (1 Bft) SO 225 0 min 0 W/m 10,4 C 20,6 C 6,8 km/h (2 Bft)
19/05/2012 13:30 20,5 C 52 % 1006,1 hPa 0,0 mm 7,2 km/h (2 Bft) S 180 0 min 0 W/m 10,3 C 20,5 C 8,6 km/h (2 Bft)
19/05/2012 13:40 20,3 C 54 % 1006,0 hPa 0,0 mm 4,3 km/h (1 Bft) S-SE 157 0 min 0 W/m 10,7 C 20,3 C 7,6 km/h (2 Bft)
19/05/2012 13:50 20,2 C 52 % 1005,9 hPa 0,0 mm 0,0 km/h (0 Bft) S-SE 157 0 min 0 W/m 10,0 C 20,2 C 1,4 km/h (1 Bft)
19/05/2012 14:00 19,9 C 52 % 1005,8 hPa 0,0 mm 4,7 km/h (1 Bft) SE 135 0 min 0 W/m 9,7 C 19,9 C 7,9 km/h (2 Bft)
19/05/2012 14:10 19,6 C 55 % 1005,9 hPa 0,0 mm 0,0 km/h (0 Bft) S-SE 157 0 min 0 W/m 10,3 C 19,6 C 0,0 km/h (0 Bft)
19/05/2012 14:20 19,1 C 57 % 1006,0 hPa 0,0 mm 2,2 km/h (1 Bft) S-SE 157 0 min 0 W/m 10,4 C 19,1 C 3,6 km/h (1 Bft)
19/05/2012 14:30 18,5 C 58 % 1005,9 hPa 0,0 mm 2,5 km/h (1 Bft) S 180 0 min 0 W/m 10,1 C 18,5 C 2,9 km/h (1 Bft)
19/05/2012 14:40 18,1 C 61 % 1005,9 hPa 0,0 mm 2,2 km/h (1 Bft) SO 225 0 min 0 W/m 10,5 C 18,1 C 4,3 km/h (1 Bft)
19/05/2012 14:50 17,6 C 62 % 1005,8 hPa 0,0 mm 2,2 km/h (1 Bft) S-SO 202 0 min 0 W/m 10,2 C 17,6 C 2,2 km/h (1 Bft)
19/05/2012 15:00 17,4 C 63 % 1005,9 hPa 0,0 mm 2,9 km/h (1 Bft) S-SO 202 0 min 0 W/m 10,3 C 17,4 C 4,3 km/h (1 Bft)
19/05/2012 15:10 17,8 C 62 % 1005,8 hPa 0,0 mm 1,4 km/h (1 Bft) SO 225 0 min 0 W/m 10,4 C 17,8 C 4,3 km/h (1 Bft)
19/05/2012 15:20 18,4 C 59 % 1005,7 hPa 0,0 mm 0,4 km/h (0 Bft) SO 225 0 min 0 W/m 10,2 C 18,4 C 0,4 km/h (0 Bft)
19/05/2012 15:30 19,2 C 59 % 1005,8 hPa 0,0 mm 2,9 km/h (1 Bft) S-SO 202 0 min 0 W/m 11,0 C 19,2 C 8,6 km/h (2 Bft)
19/05/2012 15:40 19,8 C 56 % 1005,7 hPa 0,0 mm 1,8 km/h (1 Bft) SO 225 0 min 0 W/m 10,8 C 19,8 C 4,0 km/h (1 Bft)
19/05/2012 15:50 19,9 C 57 % 1005,6 hPa 0,0 mm 0,0 km/h (0 Bft) S-SO 202 0 min 0 W/m 11,1 C 19,9 C 4,0 km/h (1 Bft)
19/05/2012 16:00 20,0 C 56 % 1005,6 hPa 0,0 mm 5,8 km/h (2 Bft) SO 225 0 min 0 W/m 11,0 C 20,0 C 9,7 km/h (2 Bft)
19/05/2012 16:10 19,9 C 57 % 1005,5 hPa 0,0 mm 3,2 km/h (1 Bft) S-SO 202 0 min 0 W/m 11,1 C 19,9 C 4,3 km/h (1 Bft)
19/05/2012 16:20 19,6 C 57 % 1005,5 hPa 0,0 mm 2,5 km/h (1 Bft) SO 225 0 min 0 W/m 10,8 C 19,6 C 2,9 km/h (1 Bft)
19/05/2012 16:30 19,3 C 59 % 1005,5 hPa 0,0 mm 0,7 km/h (0 Bft) S-SO 202 0 min 0 W/m 11,1 C 19,3 C 0,7 km/h (0 Bft)
19/05/2012 16:40 19,1 C 60 % 1005,5 hPa 0,0 mm 2,5 km/h (1 Bft) S-SO 202 0 min 0 W/m 11,1 C 19,1 C 4,0 km/h (1 Bft)
19/05/2012 16:50 18,9 C 60 % 1005,5 hPa 0,0 mm 2,2 km/h (1 Bft) S-SO 202 0 min 0 W/m 11,0 C 18,9 C 4,0 km/h (1 Bft)
19/05/2012 17:00 18,8 C 61 % 1005,5 hPa 0,0 mm 3,6 km/h (1 Bft) S-SO 202 0 min 0 W/m 11,1 C 18,8 C 6,1 km/h (2 Bft)
19/05/2012 17:10 18,4 C 62 % 1005,6 hPa 0,0 mm 3,6 km/h (1 Bft) S-SO 202 0 min 0 W/m 11,0 C 18,4 C 7,2 km/h (2 Bft)
19/05/2012 17:20 18,1 C 64 % 1005,6 hPa 0,0 mm 1,4 km/h (1 Bft) SO 225 0 min 0 W/m 11,2 C 18,1 C 3,6 km/h (1 Bft)
19/05/2012 17:30 18,1 C 65 % 1005,5 hPa 0,0 mm 0,0 km/h (0 Bft) SO 225 0 min 0 W/m 11,4 C 18,1 C 0,0 km/h (0 Bft)
19/05/2012 17:40 18,3 C 66 % 1005,4 hPa 0,0 mm 0,0 km/h (0 Bft) S-SO 202 0 min 0 W/m 11,8 C 18,3 C 0,0 km/h (0 Bft)
19/05/2012 17:50 18,5 C 64 % 1005,4 hPa 0,0 mm 0,0 km/h (0 Bft) SO 225 0 min 0 W/m 11,6 C 18,5 C 0,0 km/h (0 Bft)
19/05/2012 18:00 18,6 C 64 % 1005,4 hPa 0,0 mm 0,4 km/h (0 Bft) O-SO 247 0 min 0 W/m 11,7 C 18,6 C 0,4 km/h (0 Bft)
19/05/2012 18:10 18,4 C 65 % 1005,5 hPa 0,0 mm 0,0 km/h (0 Bft) O-SO 247 0 min 0 W/m 11,7 C 18,4 C 1,4 km/h (1 Bft)
19/05/2012 18:20 18,1 C 67 % 1005,4 hPa 0,0 mm 1,8 km/h (1 Bft) SO 225 0 min 0 W/m 11,9 C 18,1 C 4,3 km/h (1 Bft)
19/05/2012 18:30 17,7 C 71 % 1005,4 hPa 0,0 mm 2,5 km/h (1 Bft) O-SO 247 0 min 0 W/m 12,4 C 17,7 C 7,6 km/h (2 Bft)
19/05/2012 18:40 17,2 C 73 % 1005,4 hPa 0,1 mm 2,2 km/h (1 Bft) SO 225 0 min 0 W/m 12,3 C 17,2 C 4,0 km/h (1 Bft)
19/05/2012 18:50 16,7 C 76 % 1005,4 hPa 0,0 mm 2,2 km/h (1 Bft) SO 225 0 min 0 W/m 12,4 C 16,7 C 3,6 km/h (1 Bft)
19/05/2012 19:00 16,3 C 80 % 1005,7 hPa 0,2 mm 2,2 km/h (1 Bft) SO 225 0 min 0 W/m 12,8 C 16,3 C 3,6 km/h (1 Bft)
19/05/2012 19:10 15,7 C 81 % 1005,6 hPa 0,1 mm 0,0 km/h (0 Bft) O-SO 247 0 min 0 W/m 12,4 C 15,7 C 0,0 km/h (0 Bft)
19/05/2012 19:20 15,2 C 83 % 1005,7 hPa 0,2 mm 0,7 km/h (0 Bft) S-SO 202 0 min 0 W/m 12,3 C 15,2 C 0,7 km/h (0 Bft)
19/05/2012 19:30 14,9 C 84 % 1005,6 hPa 0,1 mm 0,0 km/h (0 Bft) O-SO 247 0 min 0 W/m 12,2 C 14,9 C 0,0 km/h (0 Bft)
19/05/2012 19:40 14,7 C 84 % 1005,6 hPa 0,0 mm 0,4 km/h (0 Bft) O-SO 247 0 min 0 W/m 12,0 C 14,7 C 3,2 km/h (1 Bft)
19/05/2012 19:50 14,6 C 85 % 1005,6 hPa 0,0 mm 0,0 km/h (0 Bft) O-SO 247 0 min 0 W/m 12,1 C 14,6 C 0,0 km/h (0 Bft)
19/05/2012 20:00 14,5 C 85 % 1005,7 hPa 0,0 mm 0,0 km/h (0 Bft) O-SO 247 0 min 0 W/m 12,0 C 14,5 C 0,0 km/h (0 Bft)
_ Min-Heure 07:20 14:00 18:50 - 20:00 - - - - 07:20 07:20 20:00
Minimum _ 10,2 C 52 % 1005,4 hPa - 0,0 km/h (0 Bft) - - - - 8,6 C 10,2 C 0,0 km/h (0 Bft)
_ Max-Heure 13:20 09:10 00:10 19:20 10:00 - - 20:00 20:00 19:00 13:20 10:00
Maximum _ 20,6 C 91 % 1010,9 hPa 0,2 mm 9,7 km/h
S-SO (2 Bft)
- - 0 min 0 W/m 12,8 C 20,6 C 13,0 km/h
S-SO (3 Bft)
Moyenne _ 14,7 C 77 % 1007,3 hPa #0,7 mm 1,7 km/h (1 Bft) E-NE - #0 min. 0 W/m 10,4 C 14,7 C 3,1 km/h (1 Bft)
Saint Bonnet de Bellac- Haute Vienne - France